EW3904 Weather Reports


Display with metric or nautical units.
time (UTC)temp
F
wind
direction
speed
MPH
gust
MPH
rain 1hr
in
rain 24hr
in
rain mn
in
humidity
%
barometer
mb
20260506204209 82 277 11.0 12.0 0.00 0.00 0.00 65 1012.8
20260506203208 82 269 10.0 10.0 0.00 0.00 0.00 63 1013.0
20260506202208 81 269 6.0 12.0 0.00 0.00 0.00 64 1013.1
20260506201208 82 266 10.0 13.0 0.00 0.00 0.00 62 1013.1
20260506200208 83 217 4.0 10.0 0.00 0.00 0.00 62 1013.5
20260506195209 82 248 8.0 10.0 0.00 0.00 0.00 62 1013.6
20260506194208 81 225 5.0 12.0 0.00 0.00 0.00 63 1013.7
20260506193208 81 236 8.0 14.0 0.00 0.00 0.00 61 1013.9
20260506192208 81 287 10.0 14.0 0.00 0.00 0.00 61 1014.1
20260506191208 80 246 6.0 13.0 0.00 0.00 0.00 63 1014.3
20260506185208 80 197 8.0 12.0 0.00 0.00 0.00 62 1014.3
20260506184208 80 252 4.0 17.0 0.00 0.00 0.00 63 1014.6
20260506183208 81 259 10.0 14.0 0.00 0.00 0.00 61 1014.5
20260506181208 81 257 9.0 13.0 0.00 0.00 0.00 63 1014.5
20260506180207 81 210 5.0 11.0 0.00 0.00 0.00 62 1014.4
20260506175207 80 257 6.0 15.0 0.00 0.00 0.00 61 1014.4
20260506174207 80 261 11.0 15.0 0.00 0.00 0.00 60 1014.4
20260506173207 80 196 7.0 16.0 0.00 0.00 0.00 61 1014.4
20260506172207 79 173 4.0 10.0 0.00 0.00 0.00 62 1014.4
20260506171238 78 205 7.0 11.0 0.00 0.00 0.00 61 1014.7
20260506170237 77 240 8.0 14.0 0.00 0.00 0.00 62 1015.0
20260506165207 78 244 4.0 11.0 0.00 0.00 0.00 64 1015.1
20260506164207 77 208 6.0 10.0 0.00 0.00 0.00 64 1015.3
20260506163207 77 240 10.0 13.0 0.00 0.00 0.00 64 1015.5
20260506162237 77 217 9.0 15.0 0.00 0.00 0.00 66 1015.7
20260506161207 76 265 13.0 13.0 0.00 0.00 0.00 67 1016.0
20260506155237 74 263 8.0 14.0 0.00 0.00 0.00 68 1015.9
20260506154237 75 252 8.0 13.0 0.00 0.00 0.00 69 1016.0
20260506153237 74 245 8.0 14.0 0.00 0.00 0.00 70 1016.0
20260506151206 73 228 6.0 15.0 0.00 0.00 0.00 72 1016.0
20260506150236 73 262 13.0 13.0 0.00 0.00 0.00 71 1015.7
20260506144206 72 259 10.0 12.0 0.00 0.00 0.00 73 1015.8
20260506143236 71 244 8.0 13.0 0.00 0.00 0.00 78 1015.8
20260506142236 71 243 12.0 16.0 0.00 0.00 0.00 81 1015.5
20260506141206 70 255 6.0 13.0 0.00 0.00 0.00 82 1015.2
20260506140236 69 252 7.0 10.0 0.00 0.00 0.00 83 1015.3
20260506135206 69 207 6.0 14.0 0.00 0.00 0.00 83 1015.0
20260506134206 69 237 10.0 11.0 0.00 0.00 0.00 83 1014.8
20260506133236 69 226 8.0 12.0 0.00 0.00 0.00 84 1015.1
20260506132206 69 254 10.0 11.0 0.00 0.00 0.00 83 1014.8
20260506131236 68 253 9.0 9.0 0.00 0.00 0.00 85 1014.7
20260506130206 67 246 7.0 10.0 0.00 0.00 0.00 85 1014.9
20260506125206 67 262 7.0 7.0 0.00 0.00 0.00 86 1015.2
20260506124205 67 218 8.0 8.0 0.00 0.00 0.00 85 1014.9
20260506122205 66 214 1.0 2.0 0.00 0.00 0.00 86 1014.9
20260506121205 65 221 0.0 2.0 0.00 0.00 0.00 86 1014.7
20260506115205 65 216 2.0 4.0 0.00 0.00 0.00 86 1014.8
20260506114235 64 213 2.0 4.0 0.00 0.00 0.00 86 1014.7
20260506113235 64 207 1.0 3.0 0.00 0.00 0.00 87 1014.6
20260506112235 63 254 1.0 2.0 0.00 0.00 0.00 86 1014.5
20260506111205 63 227 0.0 2.0 0.00 0.00 0.00 87 1014.3
20260506110205 61 235 0.0 2.0 0.00 0.00 0.00 88 1014.1
20260506105235 60 203 0.0 0.0 0.00 0.00 0.00 87 1014.0
20260506104205 61 189 0.0 0.0 0.00 0.00 0.00 85 1013.6
20260506103235 61 189 0.0 0.0 0.00 0.00 0.00 85 1013.5
20260506101235 60 196 0.0 1.0 0.00 0.00 0.00 85 1013.3
20260506095205 60 196 0.0 0.0 0.00 0.00 0.00 84 1013.5
20260506094205 60 196 0.0 0.0 0.00 0.00 0.00 84 1013.4
20260506093234 60 196 0.0 2.0 0.00 0.00 0.00 83 1013.3
20260506092204 59 158 0.0 2.0 0.00 0.00 0.00 83 1013.1
20260506091235 59 176 1.0 2.0 0.00 0.00 0.00 82 1013.2
20260506090204 60 192 2.0 3.0 0.00 0.00 0.00 81 1013.3
20260506085204 60 190 0.0 2.0 0.00 0.00 0.00 80 1013.3
20260506082204 60 186 2.0 3.0 0.00 0.00 0.00 79 1013.6
20260506081204 59 183 0.0 2.0 0.00 0.00 0.00 81 1013.6
20260506080234 59 185 0.0 2.0 0.00 0.00 0.00 82 1013.7
20260506073204 58 169 0.0 0.0 0.00 0.00 0.00 81 1013.8
20260506072234 58 169 0.0 0.0 0.00 0.00 0.00 82 1013.8
20260506071234 58 169 0.0 0.0 0.00 0.00 0.00 80 1013.8
20260506070234 58 169 0.0 0.0 0.00 0.00 0.00 79 1013.9
20260506062203 59 169 0.0 0.0 0.00 0.00 0.00 81 1014.1
20260506061204 60 169 0.0 1.0 0.00 0.00 0.00 79 1013.9
20260506051233 62 216 0.0 0.0 0.00 0.00 0.00 70 1013.8
20260506050233 63 216 0.0 2.0 0.00 0.00 0.00 66 1014.1
20260506044233 63 194 0.0 2.0 0.00 0.00 0.00 68 1013.8
20260506043233 64 207 0.0 2.0 0.00 0.00 0.00 65 1013.9
20260506042232 62 179 0.0 0.0 0.00 0.00 0.00 70 1013.7
20260506041233 62 179 0.0 2.0 0.00 0.00 0.00 71 1013.7
20260506040233 62 200 0.0 2.0 0.00 0.00 0.00 72 1014.2
20260506035233 63 241 0.0 2.0 0.00 0.00 0.00 67 1014.2
20260506034232 63 241 0.0 0.0 0.00 0.00 0.00 67 1014.4
20260506033232 64 241 0.0 2.0 0.00 0.00 0.00 65 1014.2
20260506032232 64 241 1.0 2.0 0.00 0.00 0.00 66 1014.1
20260506031232 63 177 0.0 0.0 0.00 0.00 0.00 68 1013.7
20260506030232 64 177 0.0 2.0 0.00 0.00 0.00 67 1013.9
20260506025233 65 177 0.0 1.0 0.00 0.00 0.00 64 1014.0
20260506023232 65 178 0.0 2.0 0.00 0.00 0.00 63 1014.3
20260506021232 64 167 0.0 3.0 0.00 0.00 0.00 65 1013.9
20260506020232 65 167 0.0 3.0 0.00 0.00 0.00 63 1013.9
20260506015231 66 178 0.0 1.0 0.00 0.00 0.00 59 1013.8
20260506014231 67 215 2.0 2.0 0.00 0.00 0.00 59 1013.9
20260506013231 67 238 0.0 1.0 0.00 0.00 0.00 58 1013.8
20260506012231 68 155 0.0 0.0 0.00 0.00 0.00 57 1013.6
20260506011231 70 133 1.0 1.0 0.00 0.00 0.00 54 1013.5
20260506010231 70 184 0.0 1.0 0.00 0.00 0.00 51 1013.6
20260506005231 71 221 0.0 2.0 0.00 0.00 0.00 50 1013.8
20260506004231 71 198 1.0 2.0 0.00 0.00 0.00 51 1013.6
20260506003231 72 186 1.0 3.0 0.00 0.00 0.00 49 1013.6
20260506002231 73 192 1.0 3.0 0.00 0.00 0.00 47 1013.6
20260506001231 73 210 0.0 2.0 0.00 0.00 0.00 46 1013.7
20260506000231 75 175 0.0 3.0 0.00 0.00 0.00 43 1013.7
20260505235231 75 202 2.0 4.0 0.00 0.00 0.00 42 1013.7
20260505234231 76 201 2.0 5.0 0.00 0.00 0.00 41 1013.5
20260505233231 77 193 1.0 8.0 0.00 0.00 0.00 40 1013.5
20260505232231 78 232 2.0 5.0 0.00 0.00 0.00 39 1013.3
20260505231231 78 194 2.0 8.0 0.00 0.00 0.00 38 1013.3
20260505230231 78 212 2.0 8.0 0.00 0.00 0.00 37 1013.3
20260505225231 79 171 8.0 10.0 0.00 0.00 0.00 35 1013.1
20260505223230 79 178 2.0 8.0 0.00 0.00 0.00 38 1013.1
20260505222230 79 117 5.0 10.0 0.00 0.00 0.00 37 1013.1
20260505221230 79 202 5.0 13.0 0.00 0.00 0.00 37 1013.0
20260505220230 80 205 3.0 10.0 0.00 0.00 0.00 36 1013.1
20260505215230 80 214 8.0 10.0 0.00 0.00 0.00 35 1013.1
20260505214230 80 182 6.0 7.0 0.00 0.00 0.00 36 1013.1
20260505213230 80 192 4.0 11.0 0.00 0.00 0.00 36 1013.1
20260505212230 80 198 8.0 10.0 0.00 0.00 0.00 36 1013.2
20260505211230 80 197 7.0 11.0 0.00 0.00 0.00 38 1013.3
20260505210230 80 226 4.0 10.0 0.00 0.00 0.00 40 1013.3
20260505205230 80 187 6.0 14.0 0.00 0.00 0.00 40 1013.4